Weather History for Biloxi, MS

Change the Weather History Date:

Thursday, December 29, 2011

  Actual Average Record
Temperature  
Mean Temperature 54 °F -  
Max Temperature 66 °F 62 °F 75 °F (1971)
Min Temperature 42 °F 44 °F 21 °F (1983)
Degree Days  
Heating Degree Days 11    
Growing Degree Days 4 (Base 50)    
Moisture  
Dew Point 48 °F    
Average Humidity 80    
Maximum Humidity 100    
Minimum Humidity 39    
Precipitation  
Precipitation 0.00 in - - ()
Sea Level Pressure  
Sea Level Pressure 30.07 in    
Wind  
Wind Speed 3 mph (SE)    
Max Wind Speed 8 mph    
Max Gust Speed -    
Visibility 10 miles    
Events      
Averages and records for this station are not official NWS values.
T = Trace of Precipitation, MM = Missing Value Source: NWS Daily Summary

Daily Weather History Graph

Daily Weather History Graph

Search for Another Location

Airport:

Trip Planner

Search our weather history database for the weather conditions in past years. The results will help you decide how hot, cold, wet, or windy it might be!

Date:

Astronomy

Dec. 29, 2011 Rise Set
Actual Time 6:51 AM CST 5:03 PM CST
Civil Twilight 6:25 AM CST 5:30 PM CST
Nautical Twilight 5:55 AM CST 6:00 PM CST
Astronomical Twilight 5:25 AM CST 6:29 PM CST
Moon 10:06 AM CST 10:16 PM CST
Length of Visible Light 11h 05m
Length of Day
10h 12m
Waxing Crescent, 27% of the Moon is Illuminated
Dec 29
Waxing Crescent
Jan 1
First Quarter
Jan 9
Full
Jan 16
Last Quarter
Jan 23
New

Hourly Weather History & Observations

Time (CST) Temp. Windchill Dew Point Humidity Pressure Visibility Wind Dir Wind Speed Gust Speed Precip Events Conditions
12:55 AM 46.0 °F - 44.8 °F 95% 30.12 in 10.0 mi Calm Calm - N/A   Clear
1:55 AM 45.5 °F - 45.3 °F 99% 30.11 in 10.0 mi Calm Calm - N/A   Clear
2:55 AM 45.1 °F - 44.8 °F 99% 30.10 in 10.0 mi Calm Calm - N/A   Clear
3:55 AM 44.4 °F - 44.1 °F 99% 30.09 in 10.0 mi Calm Calm - N/A   Clear
4:55 AM 42.1 °F 40.2 °F 41.7 °F 99% 30.09 in 10.0 mi NE 3.5 mph - N/A   Clear
5:55 AM 43.2 °F - 42.8 °F 99% 30.11 in 10.0 mi Calm Calm - N/A   Clear
6:55 AM 43.2 °F 40.5 °F 42.8 °F 99% 30.11 in 10.0 mi ENE 4.6 mph - N/A   Clear
7:55 AM 46.8 °F - 46.4 °F 99% 30.12 in 10.0 mi ENE 4.6 mph - N/A   Clear
8:55 AM 52.5 °F - 51.1 °F 95% 30.13 in 10.0 mi ENE 3.5 mph - N/A   Clear
9:55 AM 58.8 °F - 50.4 °F 73% 30.14 in 10.0 mi East 3.5 mph - N/A   Clear
10:55 AM 63.3 °F - 50.0 °F 62% 30.12 in 10.0 mi South 8.1 mph - N/A   Clear
11:55 AM 63.9 °F - 44.1 °F 49% 30.08 in 10.0 mi SSE 8.1 mph - N/A   Clear
12:55 PM 64.6 °F - 39.2 °F 39% 30.06 in 10.0 mi SSE 6.9 mph - N/A   Clear
1:55 PM 66.0 °F - 43.5 °F 44% 30.04 in 10.0 mi South 5.8 mph - N/A   Clear
2:55 PM 65.1 °F - 41.7 °F 42% 30.04 in 10.0 mi South 6.9 mph - N/A   Clear
3:55 PM 63.1 °F - 45.3 °F 52% 30.04 in 10.0 mi South 8.1 mph - N/A   Clear
4:55 PM 59.9 °F - 47.5 °F 64% 30.03 in 10.0 mi SSE 4.6 mph - N/A   Clear
5:55 PM 57.9 °F - 52.0 °F 81% 30.03 in 10.0 mi SE 4.6 mph - N/A   Clear
6:55 PM 56.3 °F - 49.3 °F 77% 30.04 in 10.0 mi Calm Calm - N/A   Clear
7:55 PM 55.8 °F - 48.6 °F 77% 30.04 in 10.0 mi SE 3.5 mph - N/A   Clear
8:55 PM 58.1 °F - 55.8 °F 92% 30.04 in 10.0 mi SSE 4.6 mph - N/A   Clear
9:55 PM 58.5 °F - 57.9 °F 98% 30.04 in 10.0 mi SSE 5.8 mph - N/A   Clear
10:55 PM 58.8 °F - 58.5 °F 99% 30.03 in 10.0 mi South 8.1 mph - N/A   Clear
11:55 PM 58.5 °F - 58.5 °F 100% 30.01 in 10.0 mi South 6.9 mph - N/A   Clear